Simultaneous Nadir Overpasses (SNOs) Predictions

Prediction of SNOs between GOES-17 and NOAA-19 Satellite Orbit:

Table of predicted SNOs for the next 14.0 days since TLE Epoch: 3/16/2024
Index Date Time (GOES-17) GOES-17 Lat,Lon NOAA-19 Lat,Lon Distance(km) Time Diff (sec)
1 03/17/2024 04:14:09 0.02,-104.69 -0.37,-106.42 197.71 80
2 03/18/2024 03:59:16 0.02,-104.68 0.31,-103.45 140.71 80
3 03/19/2024 03:47:04 0.02,-104.68 0.99,-100.48 479.24 80
4 03/20/2024 16:18:52 0.00,-104.68 0.79,-108.11 391.56 80
5 03/21/2024 16:06:38 0.01,-104.68 0.14,-105.13 52.35 80
6 03/22/2024 15:57:06 0.01,-104.68 -0.57,-102.17 287.01 80
7 03/25/2024 04:16:51 -0.01,-104.69 -0.50,-106.87 248.56 80
8 03/26/2024 04:01:58 -0.01,-104.69 0.20,-103.90 90.67 80
9 03/27/2024 03:49:45 -0.01,-104.69 0.84,-100.92 429.78 80
10 03/28/2024 16:21:31 0.02,-104.69 0.91,-108.55 440.61 80
11 03/29/2024 16:09:19 0.02,-104.69 0.19,-105.58 101.48 80
